Location: Nazeing
(51.7333°N, 0.0667°E)
Time: 19:24:20
(UTC+00:00)

Daily predictions for brighter satellites

Satellite Brightness Start Highest point End
(mag) Time Altitude Azimuth Time Altitude Azimuth Time Altitude Azimuth
HJ-1C 3.7 18:21:54 10° SE 18:25:03 42° ENE 18:28:11 10° N
COSMOS 2428 3.6 18:20:40 10° SSE 18:25:16 26° ESE 18:29:54 10° NE
SL-16 R/B 2.8 18:22:30 10° SW 18:28:07 62° NW 18:33:46 10° NNE
SKYMED 2 3.7 18:26:45 10° NNE 18:31:07 81° WNW 18:35:28 10° SSW
Cosmos 1470 Rocket 3.6 18:26:41 10° S 18:31:09 89° E 18:35:36 10° N
Cosmos 2369 Rocket 4.2 18:29:07 10° N 18:31:30 13° NNE 18:33:53 10° NE
USA 307 3.0 18:27:13 10° WNW 18:31:31 70° N 18:35:47 10° E
USA 306 3.0 18:28:29 10° WNW 18:32:49 71° N 18:37:04 10° E
SL-8 Rocket 4.3 18:29:01 10° SSE 18:34:48 43° E 18:40:36 10° NNE
CENTAUR R/B 3.9 18:31:47 10° SE 18:34:59 15° ESE 18:38:26 10° ENE
ATLAS CENTAUR R/B 1.2 18:32:07 10° SW 18:35:45 79° NW 18:39:30 10° NE
Meteor 2-12 Rocket 4.4 18:31:45 10° S 18:37:49 84° E 18:43:59 10° NNE
Cosmos 1743 4.5 18:39:34 10° ESE 18:41:30 13° E 18:43:25 10° NE
Cosmos 1703 Rocket 3.5 18:37:40 10° N 18:42:05 83° ENE 18:46:27 10° SSE
USA 308 3.0 18:38:04 10° WNW 18:42:21 73° NNE 18:46:15 12° E
Cosmos 1666 2.8 18:39:22 10° S 18:42:57 47° E 18:46:35 10° NNE
Cosmos 1844 Rocket 3.8 18:40:30 10° NW 18:45:49 47° WSW 18:51:07 10° S
Cosmos 2322 3.9 18:40:25 10° S 18:45:56 52° ESE 18:51:29 10° NE
CSL-04 Rocket 3.7 18:41:12 10° SSE 18:46:41 70° ENE 18:52:09 10° NNW
Okean-O 2.9 18:45:23 10° S 18:49:48 73° WSW 18:54:15 10° NNW
ASTEX 1 4.3 18:46:16 10° NNE 18:50:24 27° E 18:54:32 10° SE
Cosmos 1777 Rocket 4.1 18:45:14 10° NNW 18:50:31 83° WSW 18:55:44 10° SSE
Cosmos 1933 Rocket 3.6 18:47:11 10° S 18:51:33 85° W 18:56:00 10° N
Cosmos 2366 rocket 4.2 18:47:00 10° SSE 18:53:02 48° E 18:59:07 10° NNE
H-2A R/B 2.7 18:48:31 10° S 18:53:56 64° WSW 18:59:20 10° NNW
CSL-04 Debris 4.2 18:48:50 10° SSE 18:54:18 84° ENE 18:59:49 10° NNW
SJ-6B 3.6 18:53:09 10° SE 18:56:47 33° ENE 19:00:22 10° N
Cosmos 2221 Rocket 4.2 18:53:22 10° N 18:57:28 36° ENE 19:01:35 10° SE
Ariane Rocket 3.6 18:55:53 10° SE 19:00:29 36° ENE 19:05:07 10° N
USA 186 2.0 18:59:36 18° SE 19:00:58 32° ENE 19:03:25 10° N
Cosmos 1500 4.1 18:58:54 10° SSW 19:02:32 51° WNW 19:06:14 10° N
OBJECT-B 1.8 19:02:10 19° ESE 19:03:40 27° ENE 19:06:27 10° N
Okean 1-7 3.6 19:01:53 10° NNW 19:06:12 61° W 19:10:27 10° S
Meteor 1-11 Rocket 3.8 19:01:20 10° S 19:06:51 56° E 19:12:17 10° NNE
PSLV R/B 4.0 19:02:55 10° NNE 19:07:01 82° WNW 19:11:04 10° SSW
Cosmos 2360 Rocket 2.7 19:04:37 10° SW 19:10:14 63° NW 19:15:54 10° NNE
YAOGAN 1 3.9 19:06:41 10° S 19:10:48 43° W 19:14:58 10° NNW
SAR-Lupe-4 3.5 19:07:49 10° NNE 19:11:26 86° ESE 19:15:01 10° SSW
FALCON 9 DEB 3.7 19:08:43 10° W 19:11:47 44° SSW 19:13:45 19° SE
Cosmos 1943 Rocket 3.6 19:08:12 10° NNW 19:12:35 22° NE 19:15:25 16° ENE
Meteor 1-13 Rocket 4.4 19:07:29 10° NNW 19:13:27 83° W 19:19:18 10° S
SJ 16-02 1.3 19:10:38 10° NNW 19:15:04 71° ENE 19:19:19 11° SSE
Cosmos 1727 Rocket 4.0 19:09:17 10° N 19:15:27 63° ENE 19:21:37 10° SSE
Cosmos 2341 Rocket 4.1 19:10:20 10° SSW 19:16:38 82° W 19:22:55 10° N
Cosmos 2333 4.2 19:11:10 10° SSW 19:16:50 90° ESE 19:22:37 10° NNE
DMSP B5D2-2 4.2 19:11:46 10° NNE 19:16:52 50° E 19:21:55 10° S
Cosmos 2278 Rocket 2.2 19:11:26 10° NNW 19:17:08 71° ENE 19:22:11 13° SE
Cosmos 2237 Rocket 3.1 19:13:04 10° SSE 19:17:41 26° ESE 19:22:20 10° NE
Cosmos 1544 3.8 19:15:44 10° SSE 19:18:59 31° E 19:22:16 10° NNE
Okean 3 3.5 19:15:10 10° NNW 19:19:28 85° W 19:23:45 10° S
FALCON 9 DEB 4.1 19:16:39 10° W 19:19:37 36° SSW 19:21:22 19° SSE
SL-4 R/B 3.8 19:17:27 10° W 19:20:04 20° SW 19:22:37 10° S
Cosmos 1536 2.7 19:17:22 10° S 19:21:19 62° E 19:25:15 10° NNE
MOS 1 4.4 19:15:50 10° SE 19:21:20 54° ENE 19:26:51 10° N
SeaSat 1 2.7 19:19:17 10° NE 19:24:04 47° ESE 19:28:48 10° S
Abrixas rocket 4.0 19:24:29 10° WSW 19:25:59 15° SSW 19:26:46 13° S
SPOT 3 Rocket 4.3 19:24:24 23° ESE 19:26:40 33° ENE 19:31:18 10° N
Cosmos 2218 Rocket 4.0 19:20:53 10° S 19:27:17 83° E 19:33:42 10° NNE
MetOp-A 4.1 19:25:49 10° SSE 19:31:11 87° ENE 19:36:35 10° NNW
Cosmos 864 Rocket 4.4 19:25:02 10° S 19:31:13 83° E 19:37:30 10° NNE
SME Rocket 4.1 19:23:59 10° NNE 19:31:25 51° E 19:36:21 10° S
Meteor 2-20 Rocket 4.5 19:25:30 10° N 19:31:33 57° ENE 19:37:09 12° SSE
Resurs 01 Rocket 2.5 19:31:41 28° E 19:32:33 30° ENE 19:36:25 10° N
Gbstr 26 Del rocket 3.5 19:30:48 10° W 19:35:23 69° SSW 19:38:18 27° ESE
USA 234 4.0 19:33:08 23° E 19:35:28 29° SE 19:40:59 10° S
Cosmos 1959 Rocket 4.4 19:30:19 10° S 19:36:26 88° W 19:42:37 10° N
Helios 1A Rocket 4.4 19:32:48 10° SSW 19:36:34 37° W 19:40:22 10° NNW
Cosmos 2333 Rocket 2.3 19:32:06 10° SSW 19:37:48 81° WNW 19:43:35 10° NNE
Cosmos 1937 Rocket 3.9 19:32:55 10° NNW 19:37:53 44° ENE 19:39:49 31° ESE
Cosmos 2123 Rocket 4.5 19:32:39 10° N 19:38:28 38° ENE 19:41:02 27° ESE
Lacrosse 4 Rocket 1.7 19:34:56 10° SW 19:39:22 74° NW 19:43:54 10° NNE
GP-B 4.5 19:36:09 10° SSW 19:40:21 41° W 19:44:35 10° NNW
ERBS 3.5 19:38:23 10° WNW 19:41:25 32° N 19:42:16 28° NE
USA 238 DEB 3.8 19:37:42 10° SSW 19:43:58 48° ESE 19:50:32 10° NE
USA 238 3.8 19:37:49 10° SSW 19:44:04 48° ESE 19:50:38 10° NE
Cosmos 2322 Rocket 4.1 19:39:37 10° W 19:44:26 28° NW 19:49:17 10° NNE
Cosmos 1842 3.8 19:41:33 10° N 19:45:12 38° ENE 19:45:12 38° ENE
CZ-4 R/B 4.4 19:43:52 10° SW 19:46:23 16° W 19:48:55 10° NW
Cosmos 1689 Rocket 4.5 19:44:07 10° N 19:46:34 25° WNW 19:49:01 10° SW
Cosmos 1869 Rocket 4.3 19:42:40 10° SSW 19:46:58 56° WNW 19:51:21 10° N
Resurs 1-3 3.6 19:45:27 33° SE 19:47:15 60° ENE 19:51:36 10° N
ERS-2 3.7 19:44:15 10° N 19:47:40 37° WNW 19:51:03 10° SW
IRS-1A Rocket 4.2 19:46:16 12° SSE 19:51:27 88° ENE 19:57:01 10° NNW
Cosmos 1378 4.3 19:49:05 10° NNW 19:52:38 43° W 19:56:10 10° SSW
Cosmos 2219 Rocket 2.4 19:48:27 10° SW 19:54:02 71° WNW 19:59:41 10° NNE
CZ-2C R/B 3.2 19:49:30 10° N 19:54:54 59° WNW 20:00:07 10° SSW
CREW DRAGON DEMO-1 DEB 4.3 19:53:43 10° SW 19:55:13 26° SW 19:55:13 26° SW
Cosmos 1238 Rocket 2.8 19:52:50 10° SSW 19:56:45 70° W 20:00:06 10° N
USA 305 3.2 19:53:32 10° WNW 19:57:45 59° SSW 19:58:46 44° SSE
Terra 3.9 20:00:53 14° NE 20:00:53 14° NE 20:02:37 10° NNE
NOSS 5 (C) 4.4 19:56:44 10° SW 20:01:00 75° SE 20:01:05 74° ESE
Cosmos 1980 3.7 19:56:38 10° S 20:02:07 55° ESE 20:07:39 10° NE
ERS-1 Rocket 4.5 20:03:06 21° NE 20:03:06 21° NE 20:06:26 10° N
Cosmos 1733 Rocket 2.9 19:59:44 10° S 20:04:05 80° E 20:08:29 10° NNE
COSMOS 2428 3.1 20:03:28 10° SW 20:09:07 66° NW 20:14:50 10° NNE
Meteor 2-9 Rocket 4.2 20:10:29 48° E 20:10:29 48° E 20:15:32 10° NNE
USA 307 3.3 20:07:20 10° WNW 20:11:30 52° SSW 20:12:00 49° S
NOSS 3-2 (A) 3.3 20:06:54 10° SW 20:12:37 77° SE 20:19:17 10° NE
USA 306 3.3 20:08:35 10° WNW 20:12:44 50° SSW 20:13:13 47° S
Spot 2 Rocket 4.2 20:14:35 36° ENE 20:14:35 36° ENE 20:19:00 10° N
ATLAS CENTAUR R/B 3.6 20:12:29 10° WNW 20:15:13 19° NNW 20:17:48 11° NNE
Cosmos 1743 3.0 20:12:52 10° SSW 20:16:44 66° WNW 20:20:37 10° N
Cosmos 2369 Rocket 3.1 20:12:31 10° NNW 20:17:28 31° NE 20:18:00 30° NE
Cosmos 1898 Rocket 3.6 20:12:18 10° NNW 20:17:32 75° WSW 20:19:30 39° S
USA 308 3.5 20:18:11 10° WNW 20:22:16 46° SSW 20:22:24 45° SSW
NOSS 0 Rocket 3.8 20:16:17 10° SSW 20:22:27 86° ESE 20:28:39 10° NNE
CENTAUR R/B 2.4 20:18:08 10° SSW 20:24:03 66° SE 20:31:13 10° NE
ASTEX 1 4.4 20:24:57 10° N 20:29:38 46° WNW 20:34:17 10° SSW
Cosmos 1674 Rocket 4.1 20:27:10 10° NNW 20:31:24 55° W 20:32:24 43° SW
Landsat 7 3.8 20:34:35 72° NE 20:34:35 72° NE 20:39:06 10° NNW
Cosmos 372 Rocket 3.9 20:30:31 10° NNW 20:35:34 68° NE 20:35:34 68° NE
OBJECT-B 3.1 20:35:13 21° WSW 20:35:55 22° W 20:38:32 10° NW
ARIANE 5 R/B 3.6 20:39:17 38° NNE 20:39:17 38° NNE 20:42:20 10° N
Ariane Rocket 4.2 20:35:45 16° SSW 20:39:24 40° W 20:44:14 10° NNW
ATLAS 5 CENTAUR R/B 3.8 20:36:42 10° WNW 20:40:15 19° NNW 20:40:39 19° N
Okean 2 4.0 20:37:35 10° NNW 20:40:56 55° NW 20:40:56 55° NW
Cosmos 1763 Rocket 3.4 20:38:45 10° SSW 20:44:06 88° WNW 20:49:27 10° NNE
Cosmos 2297 3.5 20:38:26 10° NNW 20:44:13 86° ENE 20:44:37 78° SE
Cosmos 1378 Rocket 4.4 20:41:30 10° NNW 20:45:49 48° W 20:46:26 45° WSW
MetOp-B 4.0 20:45:40 80° SSE 20:45:59 89° WSW 20:51:24 10° NNW
In-Cosmos 22 4.2 20:43:10 10° N 20:48:36 68° NE 20:48:36 68° NE
Cosmos 1707 4.5 20:45:46 10° N 20:47:38 27° N 20:47:38 27° N
Cosmos 1975 Rocket 4.2 20:47:09 10° N 20:49:55 36° N 20:49:55 36° N
Cosmos 1125 Rocket 4.4 20:47:53 10° NNW 20:51:54 37° NNE 20:51:54 37° NNE
SJ 16-02 4.0 20:50:24 10° WNW 20:53:05 16° W 20:55:46 10° SW
NOSS 3-2 (C) 3.3 20:48:40 10° SW 20:54:25 85° SE 20:55:56 55° NE
USA 281 4.1 20:54:08 32° NE 20:54:37 32° NE 21:00:17 10° NNW
Cosmos 468 Rocket 4.2 20:50:40 10° SSW 20:55:57 70° WNW 21:01:15 10° NNE
Cosmos 1943 Rocket 2.2 20:51:35 10° NNW 20:56:57 74° NNE 20:56:57 74° NNE
Cosmos 2278 Rocket 4.1 20:56:16 10° NW 21:00:42 24° WSW 21:04:05 14° SSW
Cosmos 2237 Rocket 2.5 20:55:38 10° SW 21:01:19 66° NW 21:07:01 10° NNE
SeaSat 1 3.8 20:56:57 10° NNE 21:01:30 38° NW 21:06:02 10° WSW
Cosmos 1535 Rocket 4.5 21:00:59 58° SSW 21:02:25 86° W 21:08:50 10° N
SPOT 3 Rocket 4.3 21:05:03 42° SW 21:05:55 47° W 21:10:59 10° NNW
Resurs 01 Rocket 2.9 21:09:14 38° W 21:09:14 38° W 21:13:07 10° NNW
USA 245 4.4 21:12:27 74° WSW 21:12:38 75° WSW 21:19:01 10° NNW
SPOT 1/Viking Rocket 4.0 21:14:33 60° NW 21:14:33 60° NW 21:18:56 10° NNW
Cosmos 1934 Rocket 4.2 21:14:32 48° SW 21:16:07 65° WNW 21:22:17 10° N
Lacrosse 4 Rocket 4.1 21:15:34 10° WNW 21:18:49 19° NNW 21:22:05 10° NNE
USA 234 3.4 21:20:31 58° SW 21:20:31 58° SW 21:25:44 10° SW
SPOT 5 4.5 21:24:59 27° N 21:24:59 27° N 21:27:01 10° NNW
Cosmos 2333 Rocket 4.4 21:18:29 10° W 21:23:00 23° NW 21:27:33 10° NNE
USA 238 DEB 4.2 21:28:19 10° WSW 21:34:52 57° NW 21:41:49 10° NE
USA 238 4.2 21:28:25 10° WSW 21:34:58 57° NW 21:41:55 10° NE
Terra 3.6 21:39:46 27° N 21:39:46 27° N 21:41:54 10° NNW
ERS-1 Rocket 4.3 21:43:05 36° NNW 21:43:05 36° NNW 21:46:04 10° NNW
Cosmos 2369 Rocket 3.4 21:56:22 10° NW 21:59:48 37° NW 21:59:48 37° NW
CENTAUR R/B 3.5 22:08:58 10° W 22:15:09 47° NNW 22:22:32 10° NE
USA 281 4.1 22:40:59 43° NW 22:40:59 43° NW 22:45:15 10° NNW
Cosmos 1943 Rocket 4.4 22:36:15 10° NW 22:38:29 18° WNW 22:38:29 18° WNW
SL-16 R/B 4.4 23:11:26 20° N 23:11:26 20° N 23:13:47 10° NNE
